FDX1205 LDDU-EDDF

Flight info

Callsign FDX1205
Flight time 1h 37m
Altitude 34000
Route AMUGO DCT SIMBA DCT AKINI T161 DEBHI DEBHI1C
Aircraft MD11/H-SDE1E2E3FGHIJ2J3J4J5M1RWXY/LB1D1

Departure

Time 2026-04-14 13:30
Airport Dubrovnik Ruđer Bošković Airport (LDDU)

Arrival

Time 2026-04-14 15:07
Airport Frankfurt Main Airport (EDDF)
Time Latitude Longitude Altitude Speed Heading
2026-04-14 13:02 42.56216 18.25996 545 ft 0 kts 208°
2026-04-14 13:04 42.56216 18.25997 545 ft 0 kts 208°
2026-04-14 13:10 42.56217 18.25997 541 ft 0 kts 208°
2026-04-14 13:13 42.56219 18.25999 541 ft 2 kts 208°
2026-04-14 13:13 42.56234 18.26008 544 ft 2 kts 199°
2026-04-14 13:14 42.56250 18.26013 550 ft 2 kts 179°
2026-04-14 13:14 42.56266 18.26009 548 ft 2 kts 145°
2026-04-14 13:14 42.56278 18.25994 545 ft 2 kts 122°
2026-04-14 13:14 42.56282 18.25985 541 ft 0 kts 119°
2026-04-14 13:15 42.56282 18.25984 541 ft 0 kts 119°
2026-04-14 13:20 42.56280 18.25989 541 ft 2 kts 119°
2026-04-14 13:20 42.56279 18.25991 544 ft 0 kts 119°
2026-04-14 13:23 42.56280 18.25991 544 ft 0 kts 119°
2026-04-14 13:23 42.56278 18.25995 541 ft 2 kts 119°
2026-04-14 13:24 42.56261 18.26036 541 ft 8 kts 118°
2026-04-14 13:24 42.56184 18.26230 544 ft 6 kts 118°
2026-04-14 13:24 42.56166 18.26249 541 ft 3 kts 165°
2026-04-14 13:25 42.56158 18.26239 541 ft 1 kts 226°
2026-04-14 13:25 42.56160 18.26225 541 ft 1 kts 281°
2026-04-14 13:26 42.56313 18.25909 545 ft 21 kts 298°
2026-04-14 13:26 42.56379 18.25740 548 ft 19 kts 298°
2026-04-14 13:26 42.56440 18.25591 541 ft 17 kts 299°
2026-04-14 13:26 42.56493 18.25461 541 ft 15 kts 299°
2026-04-14 13:27 42.56538 18.25350 541 ft 13 kts 299°
2026-04-14 13:27 42.56575 18.25252 541 ft 11 kts 296°
2026-04-14 13:27 42.56612 18.25156 541 ft 12 kts 298°
2026-04-14 13:27 42.56657 18.25040 546 ft 16 kts 298°
2026-04-14 13:28 42.56712 18.24902 547 ft 17 kts 298°
2026-04-14 13:28 42.56772 18.24750 541 ft 18 kts 301°
2026-04-14 13:28 42.56851 18.24679 541 ft 13 kts 349°
2026-04-14 13:28 42.56935 18.24723 541 ft 12 kts 54°
2026-04-14 13:29 42.56929 18.24824 540 ft 11 kts 116°
2026-04-14 13:29 42.56919 18.24852 540 ft 0 kts 118°
2026-04-14 13:29 42.56819 18.25103 539 ft 71 kts 118°
2026-04-14 13:30 42.56463 18.25995 543 ft 140 kts 118°
2026-04-14 13:30 42.55957 18.27357 734 ft 172 kts 120°
2026-04-14 13:30 42.55469 18.28833 1627 ft 167 kts 118°
2026-04-14 13:30 42.54970 18.30253 2514 ft 164 kts 123°
2026-04-14 13:31 42.54425 18.31574 3436 ft 161 kts 125°
2026-04-14 13:31 42.53798 18.32883 4015 ft 176 kts 135°
2026-04-14 13:31 42.52799 18.33945 4449 ft 188 kts 156°
2026-04-14 13:31 42.51522 18.34336 5162 ft 192 kts 179°
2026-04-14 13:32 42.50197 18.33924 5872 ft 200 kts 195°
2026-04-14 13:32 42.48818 18.33224 6407 ft 223 kts 198°
2026-04-14 13:32 42.47387 18.32462 7212 ft 227 kts 199°
2026-04-14 13:32 42.45906 18.31661 8011 ft 231 kts 199°
2026-04-14 13:33 42.44403 18.30843 8779 ft 236 kts 200°
2026-04-14 13:33 42.42866 18.30001 9521 ft 241 kts 200°
2026-04-14 13:33 42.41314 18.29081 10230 ft 246 kts 208°
2026-04-14 13:33 42.39928 18.27545 10508 ft 273 kts 233°
2026-04-14 13:34 42.39520 18.22387 11878 ft 295 kts 281°
2026-04-14 13:34 42.40111 18.19707 12643 ft 299 kts 285°
2026-04-14 13:34 42.40770 18.17066 13447 ft 302 kts 287°
2026-04-14 13:35 42.41446 18.14369 14221 ft 303 kts 285°
2026-04-14 13:35 42.42114 18.11644 14871 ft 309 kts 286°
2026-04-14 13:35 42.42802 18.08766 14998 ft 333 kts 286°
2026-04-14 13:35 42.43529 18.05682 15129 ft 355 kts 285°
2026-04-14 13:36 42.44293 18.02407 15265 ft 374 kts 285°
2026-04-14 13:36 42.45081 17.99019 15792 ft 380 kts 285°
2026-04-14 13:36 42.45880 17.95574 16363 ft 385 kts 285°
2026-04-14 13:36 42.46682 17.92113 17043 ft 386 kts 285°
2026-04-14 13:37 42.47487 17.88622 17603 ft 391 kts 285°
2026-04-14 13:37 42.48296 17.85103 18213 ft 393 kts 285°
2026-04-14 13:37 42.49112 17.81550 18760 ft 395 kts 285°
2026-04-14 13:37 42.49927 17.77991 19309 ft 397 kts 285°
2026-04-14 13:38 42.50748 17.74401 19845 ft 398 kts 285°
2026-04-14 13:38 42.51567 17.70812 20357 ft 401 kts 285°
2026-04-14 13:38 42.52415 17.67213 20905 ft 402 kts 288°
2026-04-14 13:38 42.53519 17.63703 21323 ft 407 kts 296°
2026-04-14 13:39 42.55087 17.60492 21855 ft 412 kts 308°
2026-04-14 13:39 42.57163 17.57766 22388 ft 418 kts 320°
2026-04-14 13:39 42.59616 17.55594 22877 ft 424 kts 328°
2026-04-14 13:39 42.62236 17.53715 23386 ft 428 kts 330°
2026-04-14 13:40 42.64877 17.51939 23872 ft 431 kts 331°
2026-04-14 13:40 42.67570 17.50124 24312 ft 433 kts 330°
2026-04-14 13:40 42.70269 17.48264 24771 ft 435 kts 330°
2026-04-14 13:40 42.72973 17.46357 25250 ft 438 kts 329°
2026-04-14 13:41 42.75675 17.44421 25705 ft 441 kts 329°
2026-04-14 13:41 42.78396 17.42453 26169 ft 443 kts 328°
2026-04-14 13:41 42.81118 17.40473 26588 ft 446 kts 328°
2026-04-14 13:41 42.83870 17.38467 26957 ft 451 kts 329°
2026-04-14 13:42 42.86649 17.36440 27359 ft 455 kts 329°
2026-04-14 13:42 42.89448 17.34397 27789 ft 458 kts 329°
2026-04-14 13:42 42.92265 17.32339 28212 ft 461 kts 329°
2026-04-14 13:42 42.95102 17.30266 28628 ft 464 kts 329°
2026-04-14 13:43 42.97957 17.28178 29020 ft 467 kts 329°
2026-04-14 13:43 43.00836 17.26069 29428 ft 470 kts 329°
2026-04-14 13:43 43.03690 17.23977 29803 ft 473 kts 329°
2026-04-14 13:43 43.06605 17.21838 30152 ft 476 kts 329°
2026-04-14 13:44 43.09536 17.19685 30466 ft 478 kts 329°
2026-04-14 13:44 43.12469 17.17528 30831 ft 479 kts 328°
2026-04-14 13:44 43.15404 17.15367 31187 ft 479 kts 329°
2026-04-14 13:44 43.18336 17.13206 31586 ft 478 kts 329°
2026-04-14 13:45 43.21262 17.11047 31969 ft 477 kts 329°
2026-04-14 13:45 43.24187 17.08887 32355 ft 476 kts 329°
2026-04-14 13:45 43.27100 17.06733 32759 ft 475 kts 329°
2026-04-14 13:45 43.30005 17.04583 33164 ft 474 kts 329°
2026-04-14 13:46 43.32899 17.02432 33572 ft 472 kts 329°
2026-04-14 13:46 43.35753 17.00301 33919 ft 473 kts 329°
2026-04-14 13:46 43.38657 16.98128 33982 ft 477 kts 329°
2026-04-14 13:47 43.44518 16.93750 34007 ft 480 kts 329°
2026-04-14 13:47 43.50389 16.89371 34004 ft 479 kts 328°
2026-04-14 13:48 43.56263 16.84982 34002 ft 479 kts 329°
2026-04-14 13:48 43.62127 16.80590 34009 ft 479 kts 329°
2026-04-14 13:49 43.67988 16.76191 34007 ft 479 kts 329°
2026-04-14 13:49 43.73849 16.71780 34002 ft 479 kts 329°
2026-04-14 13:50 43.79675 16.67385 34006 ft 482 kts 329°
2026-04-14 13:50 43.85572 16.62928 34004 ft 484 kts 329°
2026-04-14 13:51 43.91502 16.58435 34003 ft 486 kts 328°
2026-04-14 13:51 43.97429 16.53936 33999 ft 484 kts 328°
2026-04-14 13:52 44.03342 16.49438 34002 ft 484 kts 329°
2026-04-14 13:52 44.09226 16.44924 33996 ft 483 kts 329°
2026-04-14 13:53 44.15104 16.40408 33996 ft 482 kts 329°
2026-04-14 13:53 44.20978 16.35901 33997 ft 481 kts 329°
2026-04-14 13:54 44.26798 16.31432 33993 ft 480 kts 329°
2026-04-14 13:54 44.32635 16.26939 33997 ft 479 kts 329°
2026-04-14 13:55 44.38486 16.22424 34001 ft 480 kts 329°
2026-04-14 13:55 44.44339 16.17897 34003 ft 482 kts 329°
2026-04-14 13:56 44.50214 16.13343 34013 ft 482 kts 329°
2026-04-14 13:56 44.56081 16.08785 34022 ft 482 kts 329°
2026-04-14 13:57 44.61910 16.04245 34024 ft 482 kts 329°
2026-04-14 13:57 44.67831 15.99623 34038 ft 485 kts 329°
2026-04-14 13:58 44.73695 15.95035 34046 ft 485 kts 329°
2026-04-14 13:58 44.79598 15.90393 34050 ft 485 kts 329°
2026-04-14 13:59 44.85487 15.85735 34058 ft 485 kts 329°
2026-04-14 13:59 44.91375 15.81083 34068 ft 485 kts 329°
2026-04-14 14:00 44.97278 15.76418 34064 ft 489 kts 329°
2026-04-14 14:00 45.03211 15.71722 34070 ft 489 kts 329°
2026-04-14 14:01 45.09141 15.67016 34074 ft 489 kts 329°
2026-04-14 14:01 45.15030 15.62333 34067 ft 488 kts 328°
2026-04-14 14:02 45.20956 15.57606 34079 ft 488 kts 328°
2026-04-14 14:02 45.26909 15.52845 34070 ft 493 kts 329°
2026-04-14 14:03 45.32903 15.48043 34073 ft 493 kts 328°
2026-04-14 14:03 45.38834 15.43280 34072 ft 492 kts 328°
2026-04-14 14:04 45.44799 15.38476 34074 ft 492 kts 328°
2026-04-14 14:04 45.50756 15.33661 34070 ft 492 kts 328°
2026-04-14 14:05 45.56700 15.28819 34077 ft 490 kts 328°
2026-04-14 14:05 45.62632 15.23990 34077 ft 490 kts 328°
2026-04-14 14:06 45.67555 15.19984 34075 ft 489 kts 328°
2026-04-14 14:06 45.73476 15.15160 34079 ft 489 kts 328°
2026-04-14 14:07 45.79388 15.10330 34079 ft 489 kts 328°
2026-04-14 14:07 45.85251 15.05530 34081 ft 487 kts 328°
2026-04-14 14:08 45.91127 15.00705 34081 ft 486 kts 328°
2026-04-14 14:08 45.96994 14.95876 34081 ft 486 kts 328°
2026-04-14 14:09 46.02861 14.91037 34084 ft 484 kts 328°
2026-04-14 14:09 46.08708 14.86201 34081 ft 484 kts 328°
2026-04-14 14:10 46.14543 14.81362 34082 ft 485 kts 328°
2026-04-14 14:10 46.20386 14.76506 34080 ft 485 kts 328°
2026-04-14 14:11 46.26180 14.71654 34078 ft 484 kts 327°
2026-04-14 14:11 46.32000 14.66765 34080 ft 484 kts 327°
2026-04-14 14:12 46.37820 14.61883 34073 ft 483 kts 327°
2026-04-14 14:12 46.43645 14.56993 34092 ft 484 kts 327°
2026-04-14 14:13 46.49483 14.52081 34097 ft 485 kts 327°
2026-04-14 14:13 46.55315 14.47162 34101 ft 484 kts 327°
2026-04-14 14:14 46.61148 14.42228 34106 ft 485 kts 327°
2026-04-14 14:14 46.66941 14.37317 34103 ft 485 kts 327°
2026-04-14 14:15 46.72772 14.32359 34095 ft 487 kts 327°
2026-04-14 14:15 46.78640 14.27358 34098 ft 488 kts 327°
2026-04-14 14:16 46.84512 14.22341 34098 ft 489 kts 327°
2026-04-14 14:16 46.90387 14.17309 34093 ft 489 kts 327°
2026-04-14 14:17 46.99130 14.09763 34097 ft 488 kts 326°
2026-04-14 14:17 47.04983 14.04693 34099 ft 487 kts 327°
2026-04-14 14:18 47.10822 13.99640 34090 ft 486 kts 327°
2026-04-14 14:18 47.16649 13.94591 34091 ft 486 kts 327°
2026-04-14 14:19 47.22479 13.89527 34098 ft 487 kts 327°
2026-04-14 14:19 47.28304 13.84452 34099 ft 487 kts 327°
2026-04-14 14:20 47.34127 13.79367 34117 ft 485 kts 327°
2026-04-14 14:20 47.39878 13.74334 34130 ft 482 kts 327°
2026-04-14 14:21 47.45647 13.69269 34127 ft 482 kts 327°
2026-04-14 14:21 47.51418 13.64190 34136 ft 482 kts 327°
2026-04-14 14:22 47.57181 13.59104 34142 ft 482 kts 327°
2026-04-14 14:22 47.62917 13.54031 34146 ft 482 kts 326°
2026-04-14 14:23 47.68661 13.48916 34160 ft 480 kts 326°
2026-04-14 14:23 47.74383 13.43793 34161 ft 479 kts 326°
2026-04-14 14:24 47.80072 13.38709 34157 ft 480 kts 326°
2026-04-14 14:24 47.85794 13.33592 34159 ft 479 kts 326°
2026-04-14 14:25 47.91516 13.28466 34160 ft 478 kts 326°
2026-04-14 14:25 47.97218 13.23342 34164 ft 478 kts 326°
2026-04-14 14:26 48.02917 13.18208 34156 ft 478 kts 326°
2026-04-14 14:26 48.08599 13.13076 34152 ft 478 kts 326°
2026-04-14 14:27 48.14292 13.07921 34152 ft 478 kts 326°
2026-04-14 14:27 48.19976 13.02760 34147 ft 478 kts 326°
2026-04-14 14:28 48.25540 12.97355 34143 ft 474 kts 317°
2026-04-14 14:28 48.30098 12.90402 34146 ft 467 kts 308°
2026-04-14 14:29 48.34271 12.82927 34145 ft 466 kts 308°
2026-04-14 14:29 48.38484 12.75492 34145 ft 467 kts 308°
2026-04-14 14:30 48.42731 12.68160 34142 ft 467 kts 309°
2026-04-14 14:30 48.47013 12.60805 34144 ft 467 kts 309°
2026-04-14 14:31 48.51298 12.53427 34141 ft 467 kts 309°
2026-04-14 14:31 48.55569 12.46046 34140 ft 467 kts 309°
2026-04-14 14:32 48.59844 12.38635 34142 ft 467 kts 308°
2026-04-14 14:32 48.64077 12.31277 34140 ft 467 kts 308°
2026-04-14 14:33 48.68332 12.23858 34150 ft 467 kts 309°
2026-04-14 14:33 48.72560 12.16370 34136 ft 467 kts 306°
2026-04-14 14:34 48.75703 12.07847 34144 ft 462 kts 287°
2026-04-14 14:34 48.76484 12.03143 34151 ft 460 kts 278°
2026-04-14 14:35 48.77300 11.93584 34163 ft 460 kts 275°
2026-04-14 14:35 48.78105 11.83953 34170 ft 461 kts 277°
2026-04-14 14:36 48.79068 11.74292 34173 ft 464 kts 278°
2026-04-14 14:36 48.80088 11.64620 34181 ft 464 kts 278°
2026-04-14 14:37 48.81091 11.54941 34186 ft 464 kts 278°
2026-04-14 14:37 48.82080 11.45318 34182 ft 464 kts 278°
2026-04-14 14:38 48.83074 11.35610 34178 ft 465 kts 278°
2026-04-14 14:38 48.84394 11.26027 34170 ft 465 kts 288°
2026-04-14 14:39 48.87481 11.17404 34183 ft 469 kts 308°
2026-04-14 14:39 48.92168 11.10450 34179 ft 471 kts 318°
2026-04-14 14:40 48.97153 11.03981 33882 ft 468 kts 317°
2026-04-14 14:40 48.99547 11.00782 33372 ft 462 kts 317°
2026-04-14 14:40 49.01935 10.97516 32754 ft 462 kts 316°
2026-04-14 14:40 49.04313 10.94208 32170 ft 462 kts 316°
2026-04-14 14:41 49.06683 10.90882 31567 ft 463 kts 316°
2026-04-14 14:41 49.09057 10.87529 30978 ft 465 kts 316°
2026-04-14 14:41 49.11427 10.84172 30370 ft 467 kts 316°
2026-04-14 14:41 49.13817 10.80784 29683 ft 469 kts 316°
2026-04-14 14:42 49.16186 10.77426 29037 ft 470 kts 316°
2026-04-14 14:42 49.18584 10.74018 28406 ft 472 kts 315°
2026-04-14 14:42 49.20944 10.70508 27776 ft 474 kts 314°
2026-04-14 14:42 49.23262 10.66909 27089 ft 475 kts 313°
2026-04-14 14:43 49.25563 10.63266 26440 ft 475 kts 313°
2026-04-14 14:43 49.27846 10.59627 25809 ft 472 kts 313°
2026-04-14 14:43 49.30113 10.56014 25346 ft 467 kts 313°
2026-04-14 14:43 49.32365 10.52431 24977 ft 465 kts 313°
2026-04-14 14:44 49.34601 10.48874 24626 ft 463 kts 313°
2026-04-14 14:44 49.36741 10.45191 24333 ft 459 kts 307°
2026-04-14 14:44 49.38671 10.41293 24253 ft 458 kts 304°
2026-04-14 14:44 49.40502 10.37293 24225 ft 458 kts 303°
2026-04-14 14:45 49.42299 10.33259 24210 ft 457 kts 303°
2026-04-14 14:45 49.44096 10.29210 24201 ft 458 kts 303°
2026-04-14 14:45 49.45872 10.25231 24195 ft 458 kts 303°
2026-04-14 14:45 49.47684 10.21196 24187 ft 458 kts 303°
2026-04-14 14:46 49.49499 10.17172 24094 ft 459 kts 303°
2026-04-14 14:46 49.51323 10.13133 23723 ft 457 kts 303°
2026-04-14 14:46 49.53132 10.09127 23316 ft 455 kts 303°
2026-04-14 14:46 49.54930 10.05133 22908 ft 452 kts 303°
2026-04-14 14:47 49.56714 10.01167 22497 ft 449 kts 303°
2026-04-14 14:47 49.58483 9.97228 22102 ft 446 kts 303°
2026-04-14 14:47 49.60250 9.93292 21712 ft 444 kts 303°
2026-04-14 14:47 49.61997 9.89396 21320 ft 441 kts 303°
2026-04-14 14:48 49.63741 9.85505 20933 ft 439 kts 303°
2026-04-14 14:48 49.65472 9.81640 20556 ft 436 kts 303°
2026-04-14 14:48 49.67186 9.77809 20175 ft 434 kts 303°
2026-04-14 14:48 49.68884 9.74010 19809 ft 432 kts 303°
2026-04-14 14:49 49.70586 9.70196 19441 ft 430 kts 303°
2026-04-14 14:49 49.72280 9.66394 19080 ft 428 kts 303°
2026-04-14 14:49 49.73939 9.62658 18727 ft 426 kts 303°
2026-04-14 14:49 49.75605 9.58882 18349 ft 424 kts 303°
2026-04-14 14:50 49.77262 9.55120 17870 ft 421 kts 303°
2026-04-14 14:50 49.78908 9.51382 17397 ft 418 kts 303°
2026-04-14 14:50 49.80539 9.47677 16920 ft 415 kts 303°
2026-04-14 14:50 49.82159 9.43997 16444 ft 411 kts 303°
2026-04-14 14:51 49.83767 9.40340 15997 ft 408 kts 303°
2026-04-14 14:51 49.85354 9.36706 15547 ft 404 kts 301°
2026-04-14 14:51 49.86631 9.32840 15098 ft 401 kts 291°
2026-04-14 14:51 49.87554 9.28779 14664 ft 397 kts 286°
2026-04-14 14:52 49.88320 9.24734 14246 ft 395 kts 285°
2026-04-14 14:52 49.88997 9.20575 13781 ft 392 kts 279°
2026-04-14 14:52 49.89311 9.16457 13317 ft 388 kts 274°
2026-04-14 14:52 49.89469 9.12287 12893 ft 386 kts 272°
2026-04-14 14:53 49.89606 9.08135 12480 ft 385 kts 272°
2026-04-14 14:53 49.89764 9.03998 12076 ft 383 kts 273°
2026-04-14 14:53 49.89949 8.99887 11670 ft 380 kts 273°
2026-04-14 14:53 49.90083 8.97177 11402 ft 380 kts 274°
2026-04-14 14:54 49.90295 8.93110 11045 ft 376 kts 274°
2026-04-14 14:54 49.90513 8.89068 10685 ft 376 kts 274°
2026-04-14 14:54 49.90734 8.85035 10300 ft 373 kts 274°
2026-04-14 14:54 49.90953 8.81041 9895 ft 367 kts 274°
2026-04-14 14:55 49.91165 8.77158 9471 ft 353 kts 274°
2026-04-14 14:55 49.91368 8.73423 9063 ft 341 kts 275°
2026-04-14 14:55 49.91562 8.69813 8674 ft 331 kts 275°
2026-04-14 14:55 49.91750 8.66302 8306 ft 322 kts 276°
2026-04-14 14:56 49.92095 8.59786 8172 ft 287 kts 276°
2026-04-14 14:56 49.92254 8.56775 8176 ft 275 kts 275°
2026-04-14 14:56 49.92410 8.53823 8180 ft 274 kts 275°
2026-04-14 14:57 49.92550 8.50872 8179 ft 274 kts 272°
2026-04-14 14:57 49.92402 8.47935 8179 ft 275 kts 258°
2026-04-14 14:57 49.91855 8.45085 8178 ft 276 kts 252°
2026-04-14 14:57 49.91192 8.42283 8101 ft 279 kts 251°
2026-04-14 14:58 49.90505 8.39473 7808 ft 277 kts 250°
2026-04-14 14:58 49.89822 8.36687 7497 ft 276 kts 250°
2026-04-14 14:58 49.89143 8.33904 7201 ft 276 kts 250°
2026-04-14 14:58 49.88460 8.31104 6901 ft 278 kts 250°
2026-04-14 14:59 49.87776 8.28307 6609 ft 278 kts 251°
2026-04-14 14:59 49.87092 8.25509 6296 ft 277 kts 251°
2026-04-14 14:59 49.86420 8.22755 5988 ft 276 kts 251°
2026-04-14 14:59 49.85744 8.19985 5686 ft 274 kts 251°
2026-04-14 15:00 49.85071 8.17231 5420 ft 271 kts 251°
2026-04-14 15:00 49.84538 8.14476 5157 ft 265 kts 266°
2026-04-14 15:00 49.84773 8.11720 4956 ft 257 kts 295°
2026-04-14 15:00 49.85803 8.09533 4732 ft 252 kts 323°
2026-04-14 15:01 49.87350 8.08316 4551 ft 250 kts 342°
2026-04-14 15:01 49.89039 8.07688 4333 ft 250 kts 359°
2026-04-14 15:01 49.90717 8.08231 4124 ft 247 kts 27°
2026-04-14 15:01 49.92015 8.09931 3985 ft 248 kts 54°
2026-04-14 15:02 49.92824 8.12298 3984 ft 249 kts 64°
2026-04-14 15:02 49.93494 8.14712 3973 ft 244 kts 66°
2026-04-14 15:02 49.94101 8.17191 3999 ft 250 kts 68°
2026-04-14 15:02 49.94712 8.19767 3979 ft 252 kts 68°
2026-04-14 15:03 49.95316 8.22311 3983 ft 249 kts 67°
2026-04-14 15:03 49.95909 8.24800 3973 ft 249 kts 68°
2026-04-14 15:03 49.96511 8.27320 3874 ft 249 kts 68°
2026-04-14 15:03 49.97114 8.29839 3528 ft 248 kts 68°
2026-04-14 15:04 49.97713 8.32341 3200 ft 247 kts 68°
2026-04-14 15:04 49.98311 8.34841 2882 ft 246 kts 68°
2026-04-14 15:04 49.98881 8.37230 2535 ft 222 kts 68°
2026-04-14 15:04 49.99384 8.39340 2246 ft 195 kts 68°
2026-04-14 15:05 49.99833 8.41217 1945 ft 176 kts 67°
2026-04-14 15:05 50.00252 8.42967 1750 ft 172 kts 66°
2026-04-14 15:05 50.00665 8.44687 1527 ft 168 kts 67°
2026-04-14 15:05 50.01065 8.46359 1298 ft 163 kts 67°
2026-04-14 15:06 50.01459 8.48003 1099 ft 162 kts 68°
2026-04-14 15:06 50.01854 8.49649 874 ft 162 kts 68°
2026-04-14 15:06 50.02239 8.51276 659 ft 162 kts 69°
2026-04-14 15:06 50.02633 8.52900 467 ft 159 kts 66°
2026-04-14 15:07 50.03020 8.54478 353 ft 148 kts 71°
2026-04-14 15:07 50.03307 8.55719 361 ft 101 kts 69°
2026-04-14 15:07 50.03498 8.56521 364 ft 56 kts 70°
2026-04-14 15:07 50.03586 8.56863 365 ft 26 kts 61°
2026-04-14 15:08 50.03656 8.57009 365 ft 11 kts 44°
2026-04-14 15:08 50.03665 8.57023 367 ft 0 kts 43°
2026-04-14 15:08 50.03667 8.57025 367 ft 0 kts 43°
2026-04-14 15:08 50.03686 8.57054 366 ft 8 kts 44°
2026-04-14 15:09 50.03740 8.57130 371 ft 10 kts 41°
2026-04-14 15:09 50.03786 8.57193 368 ft 7 kts 41°
2026-04-14 15:09 50.03816 8.57232 373 ft 4 kts 40°
2026-04-14 15:09 50.03830 8.57251 371 ft 1 kts 40°
2026-04-14 15:10 50.03833 8.57254 371 ft 1 kts 40°
2026-04-14 15:10 50.03859 8.57287 371 ft 9 kts 38°
2026-04-14 15:10 50.03906 8.57345 373 ft 9 kts 39°
2026-04-14 15:10 50.03948 8.57420 375 ft 10 kts 54°
2026-04-14 15:11 50.03985 8.57534 375 ft 13 kts 68°
2026-04-14 15:11 50.04022 8.57685 377 ft 17 kts 70°
2026-04-14 15:11 50.04066 8.57871 374 ft 18 kts 69°
2026-04-14 15:11 50.04105 8.58037 378 ft 16 kts 69°
2026-04-14 15:12 50.04168 8.58153 378 ft 16 kts 30°
2026-04-14 15:12 50.04236 8.58201 378 ft 12 kts 15°
2026-04-14 15:12 50.04271 8.58202 376 ft 0 kts 353°
2026-04-14 15:13 50.04294 8.58193 377 ft 7 kts 344°
2026-04-14 15:13 50.04366 8.58157 378 ft 15 kts 339°
2026-04-14 15:13 50.04442 8.58113 377 ft 8 kts 339°
2026-04-14 15:13 50.04447 8.58110 376 ft 1 kts 339°
2026-04-14 15:14 50.04465 8.58099 374 ft 4 kts 339°
2026-04-14 15:14 50.04487 8.58086 375 ft 3 kts 339°
2026-04-14 15:14 50.04499 8.58079 373 ft 1 kts 339°
2026-04-14 15:14 50.04511 8.58072 375 ft 4 kts 339°
2026-04-14 15:15 50.04560 8.58044 373 ft 10 kts 339°
2026-04-14 15:15 50.04627 8.58005 371 ft 2 kts 339°
2026-04-14 15:15 50.04630 8.58003 370 ft 1 kts 339°
2026-04-14 15:15 50.04638 8.57998 368 ft 2 kts 339°
2026-04-14 15:16 50.04668 8.57980 369 ft 8 kts 335°
2026-04-14 15:16 50.04698 8.57909 371 ft 7 kts 277°
2026-04-14 15:16 50.04689 8.57832 369 ft 8 kts 253°
2026-04-14 15:16 50.04669 8.57740 369 ft 10 kts 250°
2026-04-14 15:17 50.04644 8.57636 369 ft 10 kts 250°
2026-04-14 15:17 50.04622 8.57543 367 ft 9 kts 250°
2026-04-14 15:17 50.04602 8.57459 368 ft 8 kts 250°
2026-04-14 15:17 50.04583 8.57377 370 ft 8 kts 250°
2026-04-14 15:18 50.04559 8.57276 366 ft 13 kts 249°
2026-04-14 15:18 50.04522 8.57126 368 ft 17 kts 249°
2026-04-14 15:18 50.04475 8.56931 370 ft 21 kts 250°
2026-04-14 15:18 50.04424 8.56709 368 ft 23 kts 249°
2026-04-14 15:19 50.04364 8.56463 365 ft 24 kts 249°
2026-04-14 15:19 50.04321 8.56283 367 ft 12 kts 249°
2026-04-14 15:19 50.04281 8.56116 364 ft 21 kts 249°
2026-04-14 15:19 50.04224 8.55879 366 ft 26 kts 250°
2026-04-14 15:20 50.04157 8.55595 365 ft 30 kts 250°
2026-04-14 15:20 50.04093 8.55328 366 ft 20 kts 249°
2026-04-14 15:20 50.04053 8.55151 367 ft 14 kts 256°
2026-04-14 15:20 50.04022 8.55027 367 ft 11 kts 248°
2026-04-14 15:21 50.03992 8.54906 364 ft 13 kts 249°
2026-04-14 15:21 50.03955 8.54752 363 ft 17 kts 249°
2026-04-14 15:21 50.03911 8.54567 361 ft 20 kts 249°
2026-04-14 15:21 50.03863 8.54388 363 ft 15 kts 242°
2026-04-14 15:22 50.03805 8.54232 362 ft 18 kts 246°
2026-04-14 15:22 50.03757 8.54044 360 ft 20 kts 250°
2026-04-14 15:22 50.03713 8.53860 360 ft 15 kts 250°
2026-04-14 15:22 50.03679 8.53718 358 ft 15 kts 250°
2026-04-14 15:23 50.03669 8.53612 355 ft 0 kts 297°
2026-04-14 15:23 50.03672 8.53603 358 ft 2 kts 298°
2026-04-14 15:23 50.03684 8.53574 359 ft 4 kts 303°
2026-04-14 15:23 50.03694 8.53547 356 ft 3 kts 300°
2026-04-14 15:24 50.03700 8.53507 354 ft 5 kts 274°
2026-04-14 15:24 50.03699 8.53438 353 ft 0 kts 278°
2026-04-14 15:24 50.03704 8.53423 349 ft 2 kts 297°
2026-04-14 15:24 50.03715 8.53411 359 ft 3 kts 330°
2026-04-14 15:25 50.03741 8.53391 357 ft 0 kts 335°
2026-04-14 15:25 50.03758 8.53380 358 ft 3 kts 338°
2026-04-14 15:25 50.03774 8.53370 357 ft 1 kts 339°
2026-04-14 15:25 50.03782 8.53366 359 ft 0 kts 339°